When you browse on this site, cookies collect data to enhance your experience and personalize the content and advertising you see.
Visit our Privacy Policy to learn more. By continuing to use the site, you agree to this use of cookies and data.
  • In France
  • List of Countries
  • For 7 days
  • Water Temperature
  • Satellite Maps
  • Weather Map
  • Weather Widgets
  • user-avatar
    Login

    Hourly Weather Lezhe

    Today, 18 November, Sunday

    Time Temperature Precipitation Wind Pressure Humidity
    00:00 +3°C° 0 mm 5 mps 740 mmHg 67%
    01:00 +4°C° 0 mm 4 mps 740 mmHg 67%
    02:00 +4°C° 0 mm 4 mps 739 mmHg 67%
    03:00 +4°C° 0 mm 4 mps 739 mmHg 67%
    04:00 +3°C° 0 mm 5 mps 739 mmHg 68%
    05:00 +3°C° 0 mm 5 mps 738 mmHg 68%
    06:00 +5°C° 0 mm 4 mps 738 mmHg 68%
    07:00 +5°C° 0 mm 5 mps 738 mmHg 68%
    08:00 +6°C° 0.1 mm 5 mps 738 mmHg 66%
    09:00 +7°C° 0.1 mm 4 mps 737 mmHg 64%
    10:00 +8°C° 0.1 mm 4 mps 737 mmHg 62%
    11:00 +8°C° 0.3 mm 4 mps 736 mmHg 64%
    12:00 +8°C° 0.3 mm 4 mps 736 mmHg 66%
    13:00 +8°C° 0.3 mm 4 mps 735 mmHg 67%
    14:00 +7°C° 0.8 mm 4 mps 735 mmHg 71%
    15:00 +7°C° 0.8 mm 4 mps 734 mmHg 76%
    16:00 +7°C° 0.8 mm 3 mps 734 mmHg 80%
    17:00 +7°C° 0.4 mm 3 mps 734 mmHg 80%
    18:00 +7°C° 0.4 mm 3 mps 733 mmHg 81%
    19:00 +7°C° 0.4 mm 3 mps 733 mmHg 82%
    20:00 +5°C° 0.1 mm 3 mps 733 mmHg 82%
    21:00 +6°C° 0.1 mm 2 mps 733 mmHg 83%
    22:00 +6°C° 0.1 mm 2 mps 733 mmHg 83%
    23:00 +6°C° 0.1 mm 2 mps 733 mmHg 83%

    Tomorrow, 19 November, Monday

    Time Temperature Precipitation Wind Pressure Humidity
    00:00 +6°C° 0.1 mm 2 mps 733 mmHg 84%
    01:00 +6°C° 0.1 mm 2 mps 733 mmHg 84%
    02:00 +6°C° 0.1 mm 2 mps 733 mmHg 84%
    03:00 +5°C° 0.1 mm 2 mps 733 mmHg 85%
    04:00 +5°C° 0.1 mm 2 mps 733 mmHg 85%
    05:00 +5°C° 0 mm 2 mps 733 mmHg 85%
    06:00 +5°C° 0 mm 2 mps 733 mmHg 85%
    07:00 +5°C° 0 mm 2 mps 734 mmHg 85%
    08:00 +6°C° 0 mm 2 mps 734 mmHg 80%
    09:00 +8°C° 0 mm 2 mps 734 mmHg 74%
    10:00 +10°C° 0 mm 2 mps 734 mmHg 69%
    11:00 +12°C° 0 mm 2 mps 734 mmHg 66%
    12:00 +12°C° 0 mm 2 mps 734 mmHg 63%
    13:00 +13°C° 0 mm 2 mps 734 mmHg 60%
    14:00 +12°C° 0 mm 2 mps 734 mmHg 62%
    15:00 +12°C° 0 mm 2 mps 734 mmHg 65%
    16:00 +10°C° 0 mm 2 mps 734 mmHg 68%
    17:00 +10°C° 0.1 mm 3 mps 734 mmHg 70%
    18:00 +10°C° 0.1 mm 3 mps 734 mmHg 72%
    19:00 +10°C° 0.1 mm 4 mps 734 mmHg 74%
    20:00 +10°C° 0.5 mm 4 mps 734 mmHg 76%
    21:00 +10°C° 0.5 mm 4 mps 734 mmHg 77%
    22:00 +10°C° 0.5 mm 4 mps 734 mmHg 78%
    23:00 +8°C° 2.9 mm 4 mps 734 mmHg 82%

    Day after tomorrow, 20 November, Tuesday

    Time Temperature Precipitation Wind Pressure Humidity
    00:00 +8°C° 2.9 mm 4 mps 734 mmHg 85%
    01:00 +8°C° 2.9 mm 4 mps 734 mmHg 88%
    02:00 +8°C° 2.5 mm 4 mps 733 mmHg 88%
    03:00 +8°C° 2.5 mm 5 mps 733 mmHg 88%
    04:00 +9°C° 2.5 mm 5 mps 733 mmHg 89%
    05:00 +9°C° 3.5 mm 5 mps 733 mmHg 89%
    06:00 +9°C° 3.5 mm 5 mps 733 mmHg 89%
    07:00 +9°C° 3.5 mm 5 mps 733 mmHg 90%
    08:00 +9°C° 2.2 mm 5 mps 733 mmHg 89%
    09:00 +10°C° 2.2 mm 5 mps 733 mmHg 89%
    10:00 +10°C° 2.2 mm 5 mps 733 mmHg 88%
    11:00 +12°C° 1.5 mm 5 mps 733 mmHg 88%
    12:00 +12°C° 1.5 mm 5 mps 733 mmHg 88%
    13:00 +13°C° 1.5 mm 5 mps 732 mmHg 88%
    14:00 +13°C° 1.5 mm 4 mps 732 mmHg 88%
    15:00 +13°C° 1.5 mm 4 mps 732 mmHg 89%
    16:00 +12°C° 1.5 mm 4 mps 732 mmHg 90%
    17:00 +12°C° 0.8 mm 4 mps 732 mmHg 90%
    18:00 +12°C° 0.8 mm 4 mps 733 mmHg 90%
    19:00 +12°C° 0.8 mm 4 mps 733 mmHg 90%
    20:00 +12°C° 0.5 mm 4 mps 733 mmHg 90%
    21:00 +12°C° 0.5 mm 4 mps 733 mmHg 89%
    22:00 +12°C° 0.5 mm 4 mps 733 mmHg 89%
    23:00 +12°C° 0.5 mm 3 mps 733 mmHg 89%

    21 November, Wednesday

    Time Temperature Precipitation Wind Pressure Humidity
    00:00 +12°C° 0.5 mm 3 mps 733 mmHg 89%
    01:00 +13°C° 0.5 mm 2 mps 732 mmHg 89%
    02:00 +13°C° 1.8 mm 2 mps 732 mmHg 90%
    03:00 +13°C° 1.8 mm 2 mps 732 mmHg 91%
    04:00 +13°C° 1.8 mm 2 mps 731 mmHg 92%
    05:00 +11°C° 1.5 mm 3 mps 731 mmHg 91%
    06:00 +11°C° 1.5 mm 3 mps 732 mmHg 91%
    07:00 +11°C° 1.5 mm 3 mps 732 mmHg 91%
    08:00 +12°C° 1.3 mm 2 mps 732 mmHg 91%
    09:00 +13°C° 1.3 mm 2 mps 733 mmHg 91%
    10:00 +13°C° 1.3 mm 2 mps 733 mmHg 91%
    11:00 +13°C° 0.8 mm 2 mps 733 mmHg 90%
    12:00 +13°C° 0.8 mm 1 mps 733 mmHg 90%
    13:00 +13°C° 0.8 mm 1 mps 733 mmHg 90%
    14:00 +13°C° 0.5 mm 1 mps 733 mmHg 91%
    15:00 +13°C° 0.5 mm 1 mps 734 mmHg 92%
    16:00 +13°C° 0.5 mm 2 mps 734 mmHg 93%
    17:00 +12°C° 0.3 mm 2 mps 735 mmHg 94%
    18:00 +12°C° 0.3 mm 2 mps 735 mmHg 95%
    19:00 +12°C° 0.3 mm 2 mps 736 mmHg 95%
    20:00 +12°C° 0.2 mm 2 mps 736 mmHg 95%
    21:00 +12°C° 0.2 mm 2 mps 736 mmHg 95%
    22:00 +12°C° 0.2 mm 2 mps 737 mmHg 94%
    23:00 +12°C° 0.1 mm 2 mps 737 mmHg 94%

    22 November, Thursday

    Time Temperature Precipitation Wind Pressure Humidity
    00:00 +12°C° 0.1 mm 2 mps 737 mmHg 93%
    01:00 +12°C° 0.1 mm 2 mps 737 mmHg 93%
    02:00 +10°C° 0 mm 2 mps 737 mmHg 92%
    03:00 +10°C° 0 mm 2 mps 737 mmHg 92%
    04:00 +10°C° 0 mm 2 mps 737 mmHg 91%
    05:00 +10°C° 0 mm 2 mps 737 mmHg 91%
    06:00 +10°C° 0 mm 2 mps 737 mmHg 90%
    07:00 +10°C° 0 mm 2 mps 738 mmHg 89%
    08:00 +12°C° 0 mm 2 mps 738 mmHg 84%
    09:00 +13°C° 0 mm 1 mps 738 mmHg 79%
    10:00 +15°C° 0 mm 1 mps 739 mmHg 74%
    11:00 +15°C° 0 mm 1 mps 738 mmHg 72%
    12:00 +16°C° 0 mm 1 mps 738 mmHg 70%
    13:00 +16°C° 0 mm 1 mps 738 mmHg 68%
    14:00 +15°C° 0 mm 1 mps 738 mmHg 72%
    15:00 +15°C° 0 mm 1 mps 739 mmHg 76%
    16:00 +14°C° 0 mm 1 mps 739 mmHg 80%
    17:00 +13°C° 0 mm 1 mps 739 mmHg 82%
    18:00 +13°C° 0 mm 1 mps 740 mmHg 84%
    19:00 +12°C° 0 mm 1 mps 740 mmHg 86%
    20:00 +12°C° 0 mm 1 mps 740 mmHg 86%
    21:00 +12°C° 0 mm 1 mps 741 mmHg 86%
    22:00 +11°C° 0 mm 1 mps 741 mmHg 86%
    23:00 +11°C° 0 mm 1 mps 741 mmHg 85%

    23 November, Friday

    Time Temperature Precipitation Wind Pressure Humidity
    00:00 +11°C° 0 mm 1 mps 741 mmHg 85%
    01:00 +11°C° 0 mm 1 mps 741 mmHg 85%
    02:00 +11°C° 0 mm 1 mps 742 mmHg 84%
    03:00 +10°C° 0 mm 1 mps 742 mmHg 84%
    04:00 +9°C° 0 mm 2 mps 742 mmHg 83%
    05:00 +9°C° 0 mm 2 mps 742 mmHg 83%
    06:00 +9°C° 0 mm 2 mps 743 mmHg 83%
    07:00 +9°C° 0 mm 2 mps 743 mmHg 82%
    08:00 +10°C° 0 mm 2 mps 743 mmHg 76%
    09:00 +13°C° 0 mm 1 mps 744 mmHg 71%
    10:00 +15°C° 0 mm 1 mps 744 mmHg 65%
    11:00 +15°C° 0 mm 1 mps 744 mmHg 62%
    12:00 +16°C° 0 mm 1 mps 743 mmHg 60%
    13:00 +16°C° 0 mm 1 mps 743 mmHg 57%
    14:00 +15°C° 0 mm 1 mps 743 mmHg 61%
    15:00 +14°C° 0 mm 1 mps 743 mmHg 66%
    16:00 +13°C° 0 mm 1 mps 743 mmHg 70%
    17:00 +13°C° 0 mm 1 mps 744 mmHg 72%
    18:00 +12°C° 0 mm 1 mps 744 mmHg 75%
    19:00 +10°C° 0 mm 2 mps 744 mmHg 77%
    20:00 +10°C° 0 mm 2 mps 744 mmHg 77%
    21:00 +10°C° 0 mm 2 mps 744 mmHg 78%
    22:00 +10°C° 0 mm 2 mps 744 mmHg 78%
    23:00 +9°C° 0 mm 2 mps 744 mmHg 78%
    Show more